EW8549 Weather Reports


Display with metric or nautical units.
time (UTC)temp
F
wind
direction
speed
MPH
gust
MPH
rain 1hr
in
rain 24hr
in
rain mn
in
humidity
%
barometer
mb
20260506030015 73 239 0.0 4.0 0.00 0.00 0.00 22 1007.8
20260506024511 73 211 0.0 7.0 0.00 0.00 0.00 21 1007.5
20260506023007 72 244 0.0 5.0 0.00 0.00 0.00 21 1007.3
20260506021502 73 153 0.0 4.0 0.00 0.00 0.00 25 1007.4
20260506020059 73 166 0.0 6.0 0.00 0.00 0.00 28 1007.4
20260506014554 73 149 0.0 0.0 0.00 0.00 0.00 31 1007.3
20260506013055 73 117 1.0 6.0 0.00 0.00 0.00 33 1007.2
20260506011548 73 136 0.0 1.0 0.00 0.00 0.00 35 1007.1
20260506010041 73 138 0.0 5.0 0.00 0.00 0.00 37 1007.0
20260506004536 74 95 0.0 12.0 0.00 0.00 0.00 39 1006.6
20260506003031 74 166 0.0 0.0 0.00 0.00 0.00 34 1007.0
20260506001527 74 148 0.0 5.0 0.00 0.00 0.00 32 1007.3
20260506000023 74 139 0.0 5.0 0.00 0.00 0.00 31 1007.5
20260505234518 74 150 0.0 5.0 0.00 0.00 0.00 30 1007.6
20260505233021 74 122 0.0 9.0 0.00 0.00 0.00 29 1007.4
20260505231512 74 89 0.0 0.0 0.00 0.00 0.00 26 1007.5
20260505230007 74 215 0.0 0.0 0.00 0.00 0.00 28 1007.6
20260505224601 73 157 0.0 0.0 0.00 0.00 0.00 18 1007.6
20260505223057 72 153 0.0 0.0 0.00 0.00 0.00 7 1007.7
20260505221559 72 142 0.0 8.0 0.00 0.00 0.00 18 1008.0
20260505220054 74 203 2.0 10.0 0.00 0.00 0.00 41 1008.3
20260505214543 75 231 3.0 12.0 0.00 0.00 0.00 53 1008.2
20260505213038 76 272 1.0 13.0 0.00 0.00 0.00 56 1008.2
20260505211535 76 227 2.0 14.0 0.00 0.00 0.00 57 1008.2
20260505210034 76 237 2.0 12.0 0.00 0.00 0.00 57 1008.2
20260505204526 75 179 1.0 15.0 0.00 0.00 0.00 57 1008.2
20260505203021 76 136 0.0 16.0 0.00 0.00 0.00 58 1008.4
20260505201517 76 139 0.0 17.0 0.00 0.00 0.00 58 1008.3
20260505200017 76 166 4.0 16.0 0.00 0.00 0.00 58 1008.5
20260505194508 75 194 4.0 13.0 0.00 0.00 0.00 58 1008.9
20260505193004 75 175 1.0 12.0 0.00 0.00 0.00 59 1009.1
20260505191609 75 124 4.0 16.0 0.00 0.00 0.00 59 1009.2
20260505190054 74 159 1.0 9.0 0.00 0.00 0.00 57 1009.2
20260505184549 74 207 0.0 9.0 0.00 0.00 0.00 56 1009.3
20260505183044 74 154 0.0 5.0 0.00 0.00 0.00 56 1009.4
20260505181546 73 131 0.0 3.0 0.00 0.00 0.00 57 1009.5
20260505180036 73 179 0.0 7.0 0.00 0.00 0.00 57 1009.9
20260505174531 74 105 0.0 7.0 0.00 0.00 0.00 58 1010.1
20260505173027 74 103 0.0 8.0 0.00 0.00 0.00 58 1010.3
20260505171523 74 103 0.0 7.0 0.00 0.00 0.00 58 1010.4
20260505170018 74 125 0.0 9.0 0.00 0.00 0.00 58 1010.6
20260505164513 74 89 0.0 8.0 0.00 0.00 0.00 57 1010.6
20260505163009 73 235 0.0 10.0 0.00 0.00 0.00 58 1010.8
20260505161514 73 205 0.0 7.0 0.00 0.00 0.00 59 1011.1
20260505153052 72 273 0.0 11.0 0.00 0.00 0.00 58 1010.7
20260505151546 71 259 1.0 10.0 0.00 0.00 0.00 59 1010.8
20260505124602 60 111 0.0 0.0 0.00 0.00 0.00 1 1010.5
20260505123102 61 113 0.0 0.0 0.00 0.00 0.00 8 1010.3
20260505121552 61 113 0.0 0.0 0.00 0.00 0.00 11 1010.2
20260505120054 60 221 0.0 0.0 0.00 0.00 0.00 7 1010.0
20260505114543 59 159 0.0 0.0 0.00 0.00 0.00 1 1009.7
20260505113038 57 129 0.0 0.0 0.00 0.00 0.00 1 1009.3
20260505111534 56 140 0.0 0.0 0.00 0.00 0.00 1 1009.2
20260505101516 57 174 0.0 0.0 0.00 0.00 0.00 1 1009.0
20260505100016 57 129 0.0 0.0 0.00 0.00 0.00 1 1009.1
20260505094508 57 266 0.0 0.0 0.00 0.00 0.00 1 1009.1
20260505093003 57 136 0.0 4.0 0.00 0.00 0.00 1 1009.3
20260505091611 57 155 0.0 0.0 0.00 0.00 0.00 1 1009.5
20260505084555 57 217 0.0 0.0 0.00 0.00 0.00 1 1009.7
20260505083055 58 159 0.0 0.0 0.00 0.00 0.00 1 1009.7
20260505081547 58 147 0.0 0.0 0.00 0.00 0.00 1 1009.4
20260505080044 58 143 0.0 0.0 0.00 0.00 0.00 2 1009.6
20260505074532 59 160 0.0 0.0 0.00 0.00 0.00 3 1009.7
20260505073033 59 247 0.0 0.0 0.00 0.00 0.00 11 1009.8
20260505071522 60 261 0.0 0.0 0.00 0.00 0.00 15 1009.9
20260505070018 60 218 0.0 0.0 0.00 0.00 0.00 17 1009.8
20260505064514 60 226 0.0 0.0 0.00 0.00 0.00 17 1010.0
20260505063009 60 155 0.0 0.0 0.00 0.00 0.00 17 1010.0
20260505061504 60 143 0.0 0.0 0.00 0.00 0.00 16 1010.1
20260505060104 60 240 0.0 0.0 0.00 0.00 0.00 12 1010.1
20260505054558 60 235 0.0 0.0 0.00 0.00 0.00 8 1010.1
20260505053051 60 167 0.0 0.0 0.00 0.00 0.00 2 1010.2
20260505051547 60 273 0.0 0.0 0.00 0.00 0.00 1 1010.4
20260505041529 62 132 0.0 0.0 0.00 0.00 0.00 16 1010.1
20260505040029 62 151 0.0 0.0 0.00 0.00 0.00 18 1010.2
20260505034523 62 151 0.0 0.0 0.00 0.00 0.00 20 1010.0
20260505033022 62 185 0.0 0.0 0.00 0.00 0.00 18 1010.1
20260505031513 62 185 0.0 0.0 0.00 0.00 0.00 14 1010.2